Location: Caltech
(34.1382°N, 118.1253°W)
Time: 04:49:38
(UTC-07:00)

A-11 Canister half - All Passes

Search period start: 01 August 2015 00:00
Search period end: 11 August 2015 00:00
Orbit: 1517 x 1683 km, 47.2° (Epoch: 30 July)

Date Brightness Start Highest point End Pass type
(mag) Time Alt. Az. Time Alt. Az. Time Alt. Az.
01 Aug - 10:48:21 10° SSE 10:54:35 20° SE 11:01:27 10° E daylight
01 Aug - 12:48:48 10° SW 12:58:39 75° SE 13:08:48 10° NE daylight
01 Aug - 14:54:41 10° W 15:04:22 49° NNW 15:14:09 10° NE daylight
01 Aug - 17:02:11 10° WNW 17:11:32 39° N 17:20:52 10° ENE daylight
01 Aug - 19:08:11 10° NW 19:18:18 64° NNE 19:28:11 10° ESE daylight
01 Aug - 21:13:42 10° WNW 21:23:15 48° SW 21:32:26 10° SSE visible
02 Aug - 10:26:03 10° SSE 10:31:43 18° SE 10:38:07 10° E daylight
02 Aug - 12:25:58 10° SW 12:35:44 71° SE 12:45:50 10° ENE daylight
02 Aug - 14:31:38 10° W 14:41:21 51° NNW 14:51:11 10° NE daylight
02 Aug - 16:39:09 10° WNW 16:48:28 39° N 16:57:48 10° ENE daylight
02 Aug - 18:45:14 10° NW 18:55:18 62° NNE 19:05:12 10° ESE daylight
02 Aug - 20:50:42 10° WNW 21:00:23 51° SW 21:09:42 10° SSE visible
03 Aug - 10:03:48 10° SSE 10:08:53 16° SE 10:14:41 10° E daylight
03 Aug - 12:03:08 10° SW 12:12:50 67° SE 12:22:52 10° ENE daylight
03 Aug - 14:08:35 10° W 14:18:20 53° NNW 14:28:12 10° NE daylight
03 Aug - 16:16:06 10° WNW 16:25:25 39° N 16:34:44 10° ENE daylight
03 Aug - 18:22:17 10° NW 18:32:19 59° NNE 18:42:12 10° ESE daylight
03 Aug - 20:27:41 10° WNW 20:37:29 55° SW 20:46:57 10° SSE visible
03 Aug - 22:38:23 10° WSW 22:41:19 11° WSW 22:43:18 10° SW visible
04 Aug - 09:41:42 10° SSE 09:46:02 14° SE 09:51:09 10° E daylight
04 Aug - 11:40:20 10° SW 11:49:56 63° SE 11:59:53 10° ENE daylight
04 Aug - 13:45:34 10° W 13:55:19 54° NNW 14:05:15 10° NE daylight
04 Aug - 15:53:03 10° WNW 16:02:21 39° N 16:11:41 10° ENE daylight
04 Aug - 17:59:19 10° NW 18:09:19 57° NNE 18:19:11 10° ESE daylight
04 Aug - 20:04:42 10° WNW 20:14:36 59° SW 20:24:11 10° SSE visible
04 Aug - 22:14:15 10° W 22:18:28 13° WSW 22:21:49 10° SW visible
05 Aug - 09:19:47 10° SE 09:23:11 13° ESE 09:27:27 10° E daylight
05 Aug - 11:17:33 10° SSW 11:27:03 59° SE 11:36:54 10° ENE daylight
05 Aug - 13:22:33 10° WSW 13:32:19 57° NNW 13:42:17 10° NE daylight
05 Aug - 15:30:01 10° WNW 15:39:17 39° N 15:48:37 10° ENE daylight
05 Aug - 17:36:22 10° NW 17:46:19 55° NNE 17:56:10 10° E daylight
05 Aug - 19:41:42 10° WNW 19:51:42 62° SW 20:01:23 10° SSE daylight
05 Aug - 21:50:31 10° W 21:55:37 14° SW 21:59:55 10° SSW visible
06 Aug - 08:58:15 10° SE 09:00:20 11° ESE 09:03:22 10° ESE daylight
06 Aug - 10:54:47 10° SSW 11:04:09 56° SE 11:13:54 10° ENE daylight
06 Aug - 12:59:33 10° WSW 13:09:19 59° NNW 13:19:19 10° NE daylight
06 Aug - 15:06:57 10° WNW 15:16:14 39° N 15:25:34 10° ENE daylight
06 Aug - 17:13:25 10° NW 17:23:17 53° NNE 17:33:08 10° E daylight
06 Aug - 19:18:43 10° WNW 19:28:47 66° SW 19:38:35 10° SE daylight
06 Aug - 21:26:58 10° W 21:32:46 16° SW 21:37:49 10° SSW visible
07 Aug - 10:32:02 10° SSW 10:41:16 52° SE 10:50:54 10° ENE daylight
07 Aug - 12:36:33 10° WSW 12:46:20 61° NNW 12:56:21 10° NE daylight
07 Aug - 14:43:54 10° WNW 14:53:09 39° N 15:02:31 10° ENE daylight
07 Aug - 16:50:26 10° NW 17:00:17 51° NNE 17:10:04 10° E daylight
07 Aug - 18:55:46 10° WNW 19:05:53 70° SW 19:15:45 10° SE daylight
07 Aug - 21:03:32 10° W 21:09:55 18° SW 21:15:36 10° SSW visible
08 Aug - 10:09:18 10° SSW 10:18:23 48° SE 10:27:54 10° ENE daylight
08 Aug - 12:13:34 10° WSW 12:23:20 64° NNW 12:33:24 10° NE daylight
08 Aug - 14:20:51 10° WNW 14:30:06 39° N 14:39:27 10° ENE daylight
08 Aug - 16:27:28 10° NW 16:37:16 50° NNE 16:47:02 10° E daylight
08 Aug - 18:32:48 10° WNW 18:42:57 74° SW 18:52:54 10° SE daylight
08 Aug - 20:40:11 10° W 20:47:03 20° SW 20:53:18 10° SSW visible
09 Aug - 09:46:36 10° SSW 09:55:31 45° SE 10:04:52 10° ENE daylight
09 Aug - 11:50:36 10° WSW 12:00:22 66° NNW 12:10:27 10° NE daylight
09 Aug - 13:57:48 10° WNW 14:07:03 39° N 14:16:25 10° ENE daylight
09 Aug - 16:04:31 10° NW 16:14:13 48° NNE 16:23:58 10° E daylight
09 Aug - 18:09:50 10° NW 18:20:02 78° SW 18:30:03 10° SE daylight
09 Aug - 20:16:55 10° W 20:24:12 22° SW 20:30:54 10° S visible
10 Aug - 09:23:54 10° SSW 09:32:40 42° SE 09:41:50 10° ENE daylight
10 Aug - 11:27:38 10° WSW 11:37:23 69° NNW 11:47:29 10° NE daylight
10 Aug - 13:34:45 10° WNW 13:43:59 40° N 13:53:22 10° ENE daylight
10 Aug - 15:41:33 10° NW 15:51:12 47° NNE 16:00:54 10° E daylight
10 Aug - 17:46:53 10° NW 17:57:06 83° SW 18:07:10 10° SE daylight
10 Aug - 19:53:41 10° WNW 20:01:20 24° SW 20:08:28 10° S visible
